This is the latest recevied weather packets stored in our database for station/object KG0HG. If no packets are shown the sender has not sent any weather packets the latest 10 day(s).
| Time | Temp. | Humidity | Pressure | Rain* | Wind** | Luminosity | Snow |
|---|---|---|---|---|---|---|---|
| 1777589952 | 18.33° C | 46% | 1015.4 hPa | 0 mm | - | 47 W/m² | - |
| 1777589648 | 18.33° C | 47% | 1015.2 hPa | 0 mm | - | 60 W/m² | - |
| 1777589345 | 18.33° C | 47% | 1015.3 hPa | 0 mm | - | 46 W/m² | - |
| 1777589042 | 17.78° C | 47% | 1015 hPa | 0 mm | - | 52 W/m² | - |
| 1777588738 | 18.33° C | 47% | 1015.2 hPa | 0 mm | - | 73 W/m² | - |
| 1777588434 | 18.33° C | 47% | 1015.2 hPa | 0 mm | - | 69 W/m² | - |
| 1777588129 | 18.33° C | 49% | 1015.3 hPa | 0 mm | - | 76 W/m² | - |
| 1777587826 | 18.33° C | 50% | 1014.9 hPa | 0 mm | - | 103 W/m² | - |
| 1777587525 | 18.89° C | 48% | 1015.1 hPa | 0 mm | - | 82 W/m² | - |
| 1777587221 | 18.89° C | 48% | 1015 hPa | 0 mm | - | 95 W/m² | - |
| 1777586917 | 18.89° C | 49% | 1015.3 hPa | 0 mm | - | 115 W/m² | - |
| 1777586613 | 18.89° C | 50% | 1015.1 hPa | 0 mm | - | 97 W/m² | - |
| 1777586309 | 18.89° C | 50% | 1015.1 hPa | 0 mm | - | 115 W/m² | - |
| 1777586007 | 18.89° C | 48% | 1015.1 hPa | 0 mm | - | 124 W/m² | - |
| 1777585702 | 18.89° C | 49% | 1015.1 hPa | 0 mm | - | 123 W/m² | - |
| 1777585396 | 18.33° C | 49% | 1015.4 hPa | 0 mm | - | 109 W/m² | - |
| 1777585091 | 18.89° C | 49% | 1015.3 hPa | 0 mm | - | 69 W/m² | - |
| 1777584788 | 18.89° C | 48% | 1015.3 hPa | 0 mm | - | 158 W/m² | - |
| 1777584486 | 18.89° C | 49% | 1015.4 hPa | 0 mm | - | 139 W/m² | - |
| 1777584182 | 18.33° C | 51% | 1015.3 hPa | 0 mm | - | 131 W/m² | - |
| 1777583881 | 18.33° C | 51% | 1015.5 hPa | 0 mm | - | 119 W/m² | - |
| 1777583577 | 18.33° C | 51% | 1015.6 hPa | 0 mm | - | 120 W/m² | - |
| 1777583276 | 18.33° C | 51% | 1015.6 hPa | 0 mm | - | 94 W/m² | - |
| 1777582976 | 18.33° C | 50% | 1015.8 hPa | 0 mm | - | 119 W/m² | - |
| 1777582674 | 18.33° C | 51% | 1015.9 hPa | 0 mm | - | 108 W/m² | - |
* Rain latest hour (hover to see other rain measurements)
** Current wind speed in m/s (hover to see current wind gust speed)